| time (UTC) | temp C | wind direction | speed KPH | gust KPH | rain 1hr cm | rain 24hr cm | rain mn cm | humidity % | barometer mb |
| 20260506033015 | 8 | 64 | 4.8 | 9.7 | 0.00 | 0.00 | 0.00 | 76 | 1012.6 |
| 20260506032015 | 8 | 50 | 3.2 | 11.3 | 0.00 | 0.00 | 0.00 | 75 | 1012.6 |
| 20260506031016 | 8 | 44 | 6.4 | 14.5 | 0.00 | 0.00 | 0.00 | 75 | 1012.6 |
| 20260506030016 | 8 | 53 | 4.8 | 11.3 | 0.00 | 0.00 | 0.00 | 73 | 1012.5 |
| 20260506025016 | 8 | 55 | 3.2 | 8.0 | 0.00 | 0.00 | 0.00 | 72 | 1012.6 |
| 20260506024016 | 8 | 65 | 3.2 | 8.0 | 0.00 | 0.00 | 0.00 | 72 | 1012.5 |
| 20260506023016 | 9 | 43 | 6.4 | 9.7 | 0.00 | 0.00 | 0.00 | 71 | 1012.5 |
| 20260506022016 | 9 | 55 | 3.2 | 11.3 | 0.00 | 0.00 | 0.00 | 69 | 1012.7 |
| 20260506021016 | 9 | 73 | 4.8 | 9.7 | 0.00 | 0.00 | 0.00 | 69 | 1012.7 |
| 20260506020015 | 9 | 75 | 4.8 | 9.7 | 0.00 | 0.00 | 0.00 | 69 | 1012.7 |
| 20260506015035 | 10 | 47 | 4.8 | 8.0 | 0.00 | 0.00 | 0.00 | 68 | 1012.9 |
| 20260506014016 | 10 | 46 | 3.2 | 4.8 | 0.00 | 0.00 | 0.00 | 67 | 1012.8 |
| 20260506013016 | 10 | 39 | 3.2 | 4.8 | 0.00 | 0.00 | 0.00 | 66 | 1012.8 |
| 20260506012016 | 10 | 0.0 | 0.0 | 0.00 | 0.00 | 0.00 | 66 | 1012.8 | |
| 20260506011015 | 10 | 0.0 | 1.6 | 0.00 | 0.00 | 0.00 | 64 | 1012.9 | |
| 20260506010015 | 10 | 38 | 1.6 | 6.4 | 0.00 | 0.00 | 0.00 | 63 | 1013.0 |
| 20260506005016 | 10 | 59 | 3.2 | 6.4 | 0.00 | 0.00 | 0.00 | 63 | 1013.0 |
| 20260506004035 | 10 | 79 | 3.2 | 8.0 | 0.00 | 0.00 | 0.00 | 63 | 1012.9 |
| 20260506003015 | 11 | 51 | 4.8 | 11.3 | 0.00 | 0.00 | 0.00 | 62 | 1012.9 |
| 20260506002016 | 11 | 73 | 4.8 | 9.7 | 0.00 | 0.00 | 0.00 | 62 | 1013.2 |
| 20260506001016 | 11 | 44 | 4.8 | 8.0 | 0.00 | 0.00 | 0.00 | 62 | 1013.1 |
| 20260506000015 | 11 | 39 | 4.8 | 8.0 | 0.00 | 0.00 | 0.00 | 61 | 1013.1 |
| 20260505235015 | 11 | 44 | 6.4 | 9.7 | 0.00 | 0.00 | 0.00 | 61 | 1013.1 |
| 20260505234015 | 11 | 49 | 4.8 | 11.3 | 0.00 | 0.00 | 0.00 | 61 | 1013.0 |
| 20260505233035 | 11 | 39 | 4.8 | 9.7 | 0.00 | 0.00 | 0.00 | 61 | 1013.0 |
| 20260505232015 | 11 | 35 | 4.8 | 9.7 | 0.00 | 0.00 | 0.00 | 60 | 1013.0 |
| 20260505231015 | 11 | 47 | 6.4 | 9.7 | 0.00 | 0.00 | 0.00 | 58 | 1012.9 |
| 20260505230015 | 11 | 46 | 6.4 | 14.5 | 0.00 | 0.00 | 0.00 | 56 | 1012.9 |
| 20260505225015 | 12 | 47 | 8.0 | 11.3 | 0.00 | 0.00 | 0.00 | 54 | 1013.0 |
| 20260505224015 | 12 | 72 | 3.2 | 9.7 | 0.00 | 0.00 | 0.00 | 53 | 1013.0 |
| 20260505223015 | 12 | 27 | 3.2 | 4.8 | 0.00 | 0.00 | 0.00 | 51 | 1012.7 |
| 20260505222035 | 13 | 27 | 1.6 | 3.2 | 0.00 | 0.00 | 0.00 | 49 | 1012.9 |
| 20260505221035 | 13 | 27 | 1.6 | 3.2 | 0.00 | 0.00 | 0.00 | 48 | 1012.8 |
| 20260505220015 | 13 | 351 | 1.6 | 4.8 | 0.00 | 0.00 | 0.00 | 47 | 1012.7 |
| 20260505215035 | 13 | 329 | 1.6 | 4.8 | 0.00 | 0.00 | 0.00 | 46 | 1012.8 |
| 20260505214015 | 13 | 19 | 0.0 | 3.2 | 0.00 | 0.00 | 0.00 | 45 | 1012.9 |
| 20260505213015 | 13 | 332 | 1.6 | 4.8 | 0.00 | 0.00 | 0.00 | 44 | 1013.0 |
| 20260505212015 | 14 | 308 | 3.2 | 9.7 | 0.00 | 0.00 | 0.00 | 44 | 1013.1 |
| 20260505211015 | 14 | 315 | 1.6 | 6.4 | 0.00 | 0.00 | 0.00 | 43 | 1013.0 |
| 20260505210015 | 14 | 325 | 3.2 | 4.8 | 0.00 | 0.00 | 0.00 | 43 | 1013.0 |
| 20260505205015 | 15 | 337 | 1.6 | 4.8 | 0.00 | 0.00 | 0.00 | 42 | 1013.0 |
| 20260505204015 | 15 | 343 | 1.6 | 9.7 | 0.00 | 0.00 | 0.00 | 40 | 1012.8 |
| 20260505203015 | 15 | 332 | 3.2 | 8.0 | 0.00 | 0.00 | 0.00 | 39 | 1012.7 |
| 20260505202015 | 15 | 1 | 3.2 | 9.7 | 0.00 | 0.00 | 0.00 | 39 | 1012.6 |
| 20260505201035 | 15 | 357 | 3.2 | 8.0 | 0.00 | 0.00 | 0.00 | 39 | 1012.4 |
| 20260505200015 | 15 | 351 | 4.8 | 14.5 | 0.00 | 0.00 | 0.00 | 39 | 1012.3 |
| 20260505195035 | 15 | 353 | 4.8 | 11.3 | 0.00 | 0.00 | 0.00 | 37 | 1012.2 |
| 20260505194015 | 16 | 350 | 4.8 | 12.9 | 0.00 | 0.00 | 0.00 | 37 | 1012.0 |
| 20260505193015 | 16 | 337 | 4.8 | 9.7 | 0.00 | 0.00 | 0.00 | 37 | 1011.9 |
| 20260505192016 | 16 | 5 | 6.4 | 14.5 | 0.00 | 0.00 | 0.00 | 37 | 1011.7 |
| 20260505191015 | 16 | 341 | 4.8 | 12.9 | 0.00 | 0.00 | 0.00 | 37 | 1011.7 |
| 20260505190015 | 17 | 337 | 6.4 | 12.9 | 0.00 | 0.00 | 0.00 | 36 | 1011.6 |
| 20260505185015 | 17 | 321 | 6.4 | 14.5 | 0.00 | 0.00 | 0.00 | 35 | 1011.6 |
| 20260505184055 | 17 | 321 | 4.8 | 17.7 | 0.00 | 0.00 | 0.00 | 34 | 1011.4 |
| 20260505183036 | 17 | 334 | 6.4 | 12.9 | 0.00 | 0.00 | 0.00 | 34 | 1011.2 |
| 20260505182015 | 18 | 318 | 6.4 | 14.5 | 0.00 | 0.00 | 0.00 | 34 | 1011.2 |
| 20260505181015 | 18 | 349 | 8.0 | 19.3 | 0.00 | 0.00 | 0.00 | 34 | 1011.2 |
| 20260505180016 | 18 | 329 | 4.8 | 14.5 | 0.00 | 0.00 | 0.00 | 35 | 1011.1 |
| 20260505175015 | 17 | 287 | 4.8 | 16.1 | 0.00 | 0.00 | 0.00 | 35 | 1011.0 |
| 20260505174015 | 17 | 313 | 6.4 | 14.5 | 0.00 | 0.00 | 0.00 | 36 | 1011.0 |
| 20260505173016 | 17 | 322 | 6.4 | 17.7 | 0.00 | 0.00 | 0.00 | 36 | 1011.0 |
| 20260505172016 | 17 | 332 | 6.4 | 14.5 | 0.00 | 0.00 | 0.00 | 36 | 1011.0 |
| 20260505171015 | 17 | 303 | 8.0 | 17.7 | 0.00 | 0.00 | 0.00 | 35 | 1011.2 |
| 20260505170015 | 18 | 295 | 8.0 | 20.9 | 0.00 | 0.00 | 0.00 | 34 | 1011.2 |
| 20260505165015 | 18 | 312 | 8.0 | 17.7 | 0.00 | 0.00 | 0.00 | 34 | 1011.2 |
| 20260505164016 | 18 | 329 | 6.4 | 16.1 | 0.00 | 0.00 | 0.00 | 33 | 1011.1 |
| 20260505163015 | 18 | 310 | 6.4 | 14.5 | 0.00 | 0.00 | 0.00 | 32 | 1011.0 |
| 20260505162016 | 18 | 307 | 12.9 | 22.5 | 0.00 | 0.00 | 0.00 | 31 | 1011.1 |
| 20260505161055 | 18 | 349 | 8.0 | 20.9 | 0.00 | 0.00 | 0.00 | 32 | 1011.1 |
| 20260505153016 | 19 | 277 | 8.0 | 20.9 | 0.00 | 0.00 | 0.00 | 31 | 1011.3 |
| 20260505152016 | 19 | 311 | 4.8 | 16.1 | 0.00 | 0.00 | 0.00 | 29 | 1011.3 |
| 20260505151016 | 18 | 272 | 8.0 | 20.9 | 0.00 | 0.00 | 0.00 | 31 | 1011.4 |
| 20260505125015 | 17 | 252 | 8.0 | 16.1 | 0.00 | 0.00 | 0.00 | 36 | 1012.3 |
| 20260505124016 | 17 | 263 | 9.7 | 19.3 | 0.00 | 0.00 | 0.00 | 38 | 1012.3 |
| 20260505123036 | 17 | 292 | 6.4 | 19.3 | 0.00 | 0.00 | 0.00 | 40 | 1012.3 |
| 20260505122016 | 17 | 276 | 8.0 | 19.3 | 0.00 | 0.00 | 0.00 | 41 | 1012.4 |
| 20260505121016 | 16 | 268 | 9.7 | 20.9 | 0.00 | 0.00 | 0.00 | 41 | 1012.5 |
| 20260505120016 | 17 | 307 | 8.0 | 20.9 | 0.00 | 0.00 | 0.00 | 42 | 1012.6 |
| 20260505115015 | 17 | 275 | 11.3 | 19.3 | 0.00 | 0.00 | 0.00 | 42 | 1012.6 |
| 20260505114036 | 16 | 271 | 8.0 | 19.3 | 0.00 | 0.00 | 0.00 | 45 | 1012.7 |
| 20260505112015 | 16 | 228 | 4.8 | 12.9 | 0.00 | 0.00 | 0.00 | 44 | 1012.8 |
| 20260505111016 | 16 | 275 | 6.4 | 16.1 | 0.00 | 0.00 | 0.00 | 46 | 1012.9 |
| 20260505102016 | 16 | 265 | 8.0 | 16.1 | 0.00 | 0.00 | 0.00 | 43 | 1013.1 |
| 20260505101016 | 16 | 270 | 8.0 | 16.1 | 0.00 | 0.00 | 0.00 | 43 | 1013.3 |
| 20260505100015 | 16 | 314 | 4.8 | 12.9 | 0.00 | 0.00 | 0.00 | 45 | 1013.2 |
| 20260505095036 | 15 | 303 | 4.8 | 11.3 | 0.00 | 0.00 | 0.00 | 46 | 1013.1 |
| 20260505094016 | 15 | 289 | 4.8 | 12.9 | 0.00 | 0.00 | 0.00 | 46 | 1013.2 |
| 20260505093016 | 15 | 276 | 6.4 | 12.9 | 0.00 | 0.00 | 0.00 | 47 | 1013.2 |
| 20260505092016 | 15 | 254 | 3.2 | 8.0 | 0.00 | 0.00 | 0.00 | 50 | 1013.2 |
| 20260505091016 | 15 | 255 | 1.6 | 9.7 | 0.00 | 0.00 | 0.00 | 50 | 1013.2 |
| 20260505090036 | 15 | 137 | 4.8 | 12.9 | 0.00 | 0.00 | 0.00 | 52 | 1013.2 |
| 20260505085016 | 15 | 187 | 4.8 | 9.7 | 0.00 | 0.00 | 0.00 | 57 | 1013.3 |
| 20260505084036 | 15 | 203 | 3.2 | 8.0 | 0.00 | 0.00 | 0.00 | 56 | 1013.3 |
| 20260505083016 | 14 | 276 | 3.2 | 4.8 | 0.00 | 0.00 | 0.00 | 59 | 1013.3 |
| 20260505082016 | 13 | 249 | 1.6 | 9.7 | 0.00 | 0.00 | 0.00 | 62 | 1013.3 |
| 20260505081015 | 13 | 229 | 4.8 | 9.7 | 0.00 | 0.00 | 0.00 | 63 | 1013.3 |
| 20260505080036 | 13 | 270 | 3.2 | 9.7 | 0.00 | 0.00 | 0.00 | 63 | 1013.3 |
| 20260505075016 | 13 | 249 | 3.2 | 6.4 | 0.00 | 0.00 | 0.00 | 65 | 1013.3 |
| 20260505074016 | 12 | 110 | 4.8 | 8.0 | 0.00 | 0.00 | 0.00 | 68 | 1013.3 |
| 20260505073036 | 12 | 269 | 1.6 | 6.4 | 0.00 | 0.00 | 0.00 | 69 | 1013.4 |
| 20260505072036 | 12 | 250 | 3.2 | 6.4 | 0.00 | 0.00 | 0.00 | 67 | 1013.3 |
| 20260505071036 | 12 | 258 | 3.2 | 4.8 | 0.00 | 0.00 | 0.00 | 66 | 1013.4 |
| 20260505070016 | 12 | 259 | 1.6 | 4.8 | 0.00 | 0.00 | 0.00 | 68 | 1013.3 |
| 20260505065016 | 12 | 213 | 3.2 | 4.8 | 0.00 | 0.00 | 0.00 | 66 | 1013.4 |
| 20260505064016 | 11 | 230 | 1.6 | 6.4 | 0.00 | 0.00 | 0.00 | 69 | 1013.3 |
| 20260505063036 | 11 | 242 | 1.6 | 4.8 | 0.00 | 0.00 | 0.00 | 71 | 1013.2 |
| 20260505062016 | 10 | 242 | 1.6 | 3.2 | 0.00 | 0.00 | 0.00 | 74 | 1013.0 |
| 20260505061016 | 10 | 242 | 0.0 | 4.8 | 0.00 | 0.00 | 0.00 | 75 | 1013.1 |
| 20260505060016 | 9 | 242 | 1.6 | 4.8 | 0.00 | 0.00 | 0.00 | 77 | 1012.9 |
| 20260505055016 | 9 | 0.0 | 0.0 | 0.00 | 0.00 | 0.00 | 78 | 1012.7 | |
| 20260505054016 | 9 | 0.0 | 0.0 | 0.00 | 0.00 | 0.00 | 78 | 1012.8 | |
| 20260505053016 | 9 | 0.0 | 3.2 | 0.00 | 0.00 | 0.00 | 78 | 1012.7 | |
| 20260505052016 | 9 | 242 | 0.0 | 4.8 | 0.00 | 0.00 | 0.00 | 77 | 1012.7 |
| 20260505051016 | 9 | 242 | 1.6 | 4.8 | 0.00 | 0.00 | 0.00 | 77 | 1012.6 |
| 20260505041016 | 10 | 243 | 0.0 | 3.2 | 0.00 | 0.00 | 0.00 | 72 | 1012.8 |
| 20260505040016 | 10 | 243 | 1.6 | 4.8 | 0.00 | 0.00 | 0.00 | 72 | 1012.8 |
| 20260505035016 | 10 | 243 | 1.6 | 3.2 | 0.00 | 0.00 | 0.00 | 71 | 1012.7 |
| 20260505034016 | 10 | 0.0 | 0.0 | 0.00 | 0.00 | 0.00 | 71 | 1012.7 |